User: anonymous   Login
Location: Newark
(52.0267°N, 0.2640°W)
Time: 14:31:20
(UTC+00:00)
Language:

ISS - Orbit

View from above orbital plane
View from above orbital plane
View from above satellite
View from above satellite

Ground track
Ground track

The orbit data is extracted from the following two-line orbital elements,

1 25544U 98067A   20026.39359684  .00016717  00000-0  10270-3 0  9060
2 25544  51.6412 334.9961 0005477 193.0075 167.0935 15.49060609  9879
Epoch (UTC): 26 January 2020 09:26:46
Eccentricity: 0.0005477
inclination: 51.6412°
perigee height: 416 km
apogee height: 423 km
right ascension of ascending node: 334.9961°
argument of perigee: 193.0075°
revolutions per day: 15.49060609
mean anomaly at epoch: 167.0935°
orbit number at epoch: 987

The dashed part of the orbit path shows where the satellite is in the earth's shadow,  

DLR